Location: Nairn
(57.5833°N, 3.8667°W)
Time: 23:26:15
(UTC+00:00)

N. Korean satellite - Pass Details

Date: 27 October 2020
Orbit: 453 x 503 km, 97.2° (Epoch: 04 December)

Event Time Altitude Azimuth Distance (km) Brightness Sun altitude
Rises 17:37:38 0° 197° (SSW) 2,543 10.6 -8.2°
Reaches altitude 10° 17:40:00 10° 212° (SSW) 1,658 9.9 -8.5°
Maximum altitude 17:42:55 23° 267° (W) 1,050 9.4 -8.9°
Drops below altitude 10° 17:45:49 10° 322° (NW) 1,646 9.6 -9.3°
Sets 17:48:09 0° 337° (NNW) 2,519 10.4 -9.6°
